Weather in Engozero

Russia / Republic of Karelia     65°47′21″N   33°56′33″E
В апреле 2022 года жителям России запретили посещать сайт meteo.paraplan.net по решению Генеральной прокуратуры. Аудитория сайта уменьшилась в 10 раз. Владельцы сайта не видят смысла в поддержке погодного сервера в таких условиях. Сайт будет закрыт в октябре.
temp.,
°C
wind,
m/s
gust,
m/s
humid.,
%
clouds,
%
prec.,
mm/h
press.,
hPa
HPBL,
m
29 september, thu
thu2900:00+7e269043 0.0 1018205
03:00+4e27965 0.1 1019169
06:00+4e310881 0.0 1018355
09:00+5e51071100 0.0 1017748
12:00+7e51062100 0.0 1017839
15:00+6e61062100 0.0 1016884
18:00+4ese51064100 0.0 1015933
21:00+4ese4865100 0.0 1015863
30 september, fri
fri3000:00+2ese3893100 0.1 1013646
03:00+2ese369699 0.3 1012422
06:00+2ese2698100 0.3 1011374
09:00+2ese2599100 2.1 1010316
12:00+2s2499100 0.9 1011237
15:00+2s2397100 1.0 1011220
18:00+2s1399100 0.1 1011264
21:00+2s0299100 0.1 1010309
1 october, sat
sat100:00+2nw0199100 0.0 1010326
03:00+2nw1298100 0.0 1009344
06:00+2wnw149592 0.0 1010277
09:00+3w359079 0.0 1010456
12:00+4wsw3678100 0.1 1010915
15:00+4wsw3682100 0.1 1010686
18:00+3sw3690100 0.0 1011440
21:00+3wsw379295 0.0 1011495
2 october, sun
sun200:00+1wsw269490 0.0 1012135
03:00+2wsw378735 0.0 1012249
06:000wsw24916 0.0 101283
09:00+3wsw257896 0.0 1013165
12:00+6wsw35707 0.0 1013512
15:00+7sw346441 0.0 1013677
18:00+5ssw238599 0.0 101380
21:00+5ssw2591100 0.0 1013169
3 october, mon
mon300:00+5sw2496100 0.0 1013130
03:00+5sw229769 0.0 101436
06:000ssw118956 0.0 101710
09:00+3sse128265 0.0 101778
12:00+6s238376 0.0 1019256
15:00+6sse2488100 0.0 1019262
18:00+5sse2495100 0.0 102089
21:00+5s2596100 0.0 1020117